Home   Weather   Dubbo   Past weeks

Flag for Australia Past Weather in Dubbo, New South Wales, Australia — Yesterday and Last 2 Weeks

Now
72 °F

Overcast.


Feels Like: 76 °F
Forecast: 57 / 71 °F
Wind: 2 mph from Northeast

Location: Dubbo Airport

Current Time: Apr 24, 2017 at 11:55:18 am

Latest Report: Apr 24, 2017 at 11:30 am


Visibility: N/A

Pressure: 30.15 "Hg

Humidity: 57%

Dew Point: 55 °F

Location of DubboLocation

Past Weather in Dubbo — Graph

°F

Dubbo Temperature Yesterday

Maximum temperature yesterday: 79 °F (at 3:30 pm)
Minimum temperature yesterday: 48 °F (at 1:30 am)
Average temperature yesterday: 62 °F

High & Low Weather Summary for the Past Weeks

 TemperatureHumidityPressure
High81 °F (Apr 9, 1:30 pm)100% (Apr 23, 6:30 am)30.42 "Hg (Apr 23, 6:30 am)
Low41 °F (Apr 10, 4:30 am)26% (Apr 17, 1:30 pm)29.71 "Hg (Apr 9, 4:07 pm)
Average62 °F66%30.17 "Hg
* Reported Apr 9 10:00 am — Apr 24 10:00 am, Dubbo, Weather by CustomWeather, © 2017

Note: Actual official high and low records may vary slightly from our data, if they occured in-between our weather recording intervals... More about our weather records

Advertising

Dubbo Weather History for the Previous 24 Hours

Scroll right to see more
 ConditionsComfort  
Time TempWeatherWind HumidityBarometerVisibility
10:00 am
Mon, Apr 24
66 °FOvercast.9 mph68%30.18 "HgN/A
9:30 am64 °FPartly sunny.7 mph73%30.18 "HgN/A
9:00 am63 °FOvercast.7 mph73%30.18 "HgN/A
8:30 am61 °FOvercast.6 mph77%30.18 "HgN/A
8:00 am59 °FOvercast.6 mph77%30.18 "HgN/A
7:30 am57 °FOvercast.6 mph82%30.18 "HgN/A
6:30 am54 °FPassing clouds.8 mph88%30.15 "HgN/A
6:00 am55 °FOvercast.7 mph82%30.15 "HgN/A
5:30 am55 °FOvercast.8 mph82%30.15 "HgN/A
5:00 am54 °FPassing clouds.8 mph88%30.15 "HgN/A
4:30 am55 °FOvercast.7 mph82%30.15 "HgN/A
4:00 am55 °FMostly cloudy.10 mph82%30.15 "HgN/A
3:30 am54 °FMostly cloudy.5 mph88%30.15 "HgN/A
3:00 am55 °FOvercast.6 mph82%30.15 "HgN/A
2:30 am55 °FPassing clouds.7 mph82%30.15 "HgN/A
2:00 am57 °FOvercast.9 mph77%30.15 "HgN/A
1:30 am57 °FOvercast.8 mph77%30.15 "HgN/A
1:00 am57 °FOvercast.6 mph77%30.18 "HgN/A
12:30 am55 °FOvercast.7 mph82%30.18 "HgN/A
12:00 am55 °FPassing clouds.9 mph82%30.18 "HgN/A
11:00 pm
Sun, Apr 23
57 °FClear.10 mph77%30.18 "HgN/A
10:30 pm55 °FClear.8 mph77%30.18 "HgN/A
10:00 pm59 °FClear.10 mph72%30.18 "HgN/A
9:30 pm61 °FClear.9 mph68%30.18 "HgN/A
9:00 pm61 °FClear.9 mph68%30.18 "HgN/A
8:30 pm63 °FClear.10 mph64%30.18 "HgN/A
8:00 pm61 °FClear.10 mph68%30.18 "HgN/A
7:30 pm61 °FClear.7 mph68%30.18 "HgN/A
7:00 pm61 °FClear.1 mph68%30.15 "HgN/A
6:30 pm63 °FClear.3 mph64%30.15 "HgN/A
6:00 pm64 °FClear.3 mph60%30.15 "HgN/A
5:00 pm75 °FSunny.2 mph39%30.12 "HgN/A
4:30 pm79 °FSunny.No wind34%30.12 "HgN/A
4:00 pm75 °FSunny.5 mph36%30.12 "HgN/A
3:30 pm79 °FSunny.1 mph32%30.12 "HgN/A
3:00 pm77 °FSunny.1 mph36%30.15 "HgN/A
2:30 pm77 °FSunny.5 mph32%30.15 "HgN/A
2:00 pm77 °FSunny.5 mph34%30.15 "HgN/A
1:30 pm75 °FSunny.3 mph36%30.15 "HgN/A
1:00 pm77 °FSunny.6 mph36%30.18 "HgN/A
12:30 pm77 °FSunny.1 mph36%30.18 "HgN/A
12:00 pm75 °FSunny.2 mph41%30.21 "HgN/A
11:30 am75 °FSunny.2 mph47%30.21 "HgN/A
11:00 am72 °FSunny.6 mph53%30.24 "HgN/A
Weather by CustomWeather, © 2017

See weather overviewHow to use our weather pages